{"data":{"norad_id":58974,"epoch":"2026-05-24T15:36:33.181920Z","epoch_age_seconds":105214,"freshness":"FRESH","line1":"1 58974U 24031K   26144.65038405 -.00000504  00000+0 -48845-5 0  9995","line2":"2 58974  53.1610 303.8212 0001299  77.4604 282.6542 15.30203065128161","mean_motion":15.30203065,"eccentricity":0.0001299,"inclination_deg":53.161,"raan_deg":303.8212,"arg_perigee_deg":77.4604,"mean_anomaly_deg":282.6542,"bstar":-4.8845e-6,"rev_number":12816,"period_min":94.105157213236,"perigee_km":474.31566865203,"apogee_km":476.0961671421,"semimajor_km":6853.3429178971,"source":"CELESTRAK","updated_at":"2026-05-25T13:38:18.795017Z"}}